EW7948 Weather Reports


time (UTC)temp
F
wind
direction
speed
knots
gust
knots
rain 1hr
in
rain 24hr
in
rain mn
in
humidity
%
barometer
mb
20260502220023 78 199 3.5 10.4 0.00 0.00 0.00 10 1011.9
20260502214520 76 137 2.6 7.8 0.00 0.00 0.00 10 1012.2
20260502213018 77 46 1.7 7.0 0.00 0.00 0.00 10 1012.4
20260502211516 78 188 3.5 8.7 0.00 0.00 0.00 11 1012.9
20260502210013 76 115 0.9 8.7 0.00 0.00 0.00 12 1013.1
20260502204516 74 170 5.2 10.4 0.00 0.00 0.00 13 1013.3
20260502203011 77 216 1.7 11.3 0.00 0.00 0.00 11 1013.4
20260502201509 76 117 5.2 7.8 0.00 0.00 0.00 11 1013.7
20260502200008 76 215 2.6 7.0 0.00 0.00 0.00 12 1013.9
20260502194506 76 198 5.2 7.8 0.00 0.00 0.00 13 1014.0
20260502193005 76 205 0.9 8.7 0.00 0.00 0.00 12 1014.2
20260502191504 75 176 1.7 9.6 0.00 0.00 0.00 14 1014.4
20260502190002 74 344 0.9 8.7 0.00 0.00 0.00 13 1014.9
20260502184610 74 109 2.6 7.8 0.00 0.00 0.00 14 1015.1
20260502183058 73 253 4.3 7.0 0.00 0.00 0.00 16 1015.2
20260502181558 73 222 2.6 7.8 0.00 0.00 0.00 16 1015.4
20260502163042 64 26 1.7 4.3 0.00 0.00 0.00 21 1016.7
20260502161554 62 27 2.6 5.2 0.00 0.00 0.00 22 1016.7
20260502151522 58 176 2.6 5.2 0.00 0.00 0.00 22 1017.0
20260502130121 45 176 3.5 7.0 0.00 0.00 0.00 30 1015.8
20260502123122 43 114 2.6 5.2 0.00 0.00 0.00 34 1015.2
20260502121554 42 102 3.5 5.2 0.00 0.00 0.00 36 1015.1
20260502120109 42 74 2.6 4.3 0.00 0.00 0.00 37 1014.9
20260502114554 41 348 0.9 2.6 0.00 0.00 0.00 45 1014.9
20260502113050 41 348 0.0 0.0 0.00 0.00 0.00 42 1014.9
20260502111547 41 348 0.0 0.9 0.00 0.00 0.00 43 1014.8
20260502110049 41 348 0.0 0.0 0.00 0.00 0.00 38 1014.7
20260502104542 42 348 0.0 0.0 0.00 0.00 0.00 42 1014.8
20260502103039 42 348 0.0 0.0 0.00 0.00 0.00 35 1014.7
20260502101548 43 348 0.0 0.0 0.00 0.00 0.00 32 1014.6
20260502091530 44 347 0.9 2.6 0.00 0.00 0.00 42 1013.8
20260502071510 49 347 0.0 0.0 0.00 0.00 0.00 37 1013.5
20260502070005 50 347 0.0 0.0 0.00 0.00 0.00 38 1013.5
20260502064504 51 347 0.0 0.9 0.00 0.00 0.00 28 1013.4
20260502063102 52 347 0.0 0.9 0.00 0.00 0.00 30 1013.3
20260502061600 51 347 0.0 1.7 0.00 0.00 0.00 31 1013.2
20260502060109 51 347 0.0 0.0 0.00 0.00 0.00 25 1013.1
20260502054555 52 347 0.0 0.0 0.00 0.00 0.00 26 1012.9
20260502053054 53 347 0.0 0.9 0.00 0.00 0.00 24 1012.8
20260502051600 53 347 0.0 0.0 0.00 0.00 0.00 23 1012.7
20260502050057 54 347 0.0 0.0 0.00 0.00 0.00 25 1012.7
20260502044553 55 347 0.0 0.0 0.00 0.00 0.00 21 1012.6
20260502043058 56 347 0.0 0.0 0.00 0.00 0.00 22 1012.5
20260502041555 57 347 0.0 0.0 0.00 0.00 0.00 22 1012.4
20260502034558 59 347 0.0 0.0 0.00 0.00 0.00 23 1012.0
20260502033050 60 347 0.0 0.0 0.00 0.00 0.00 20 1011.7
20260502031550 61 347 0.0 0.0 0.00 0.00 0.00 18 1011.5
20260502030050 62 347 0.0 3.5 0.00 0.00 0.00 19 1011.2
20260502024607 63 347 1.7 5.2 0.00 0.00 0.00 18 1010.9
20260502023049 64 344 4.3 7.8 0.00 0.00 0.00 17 1010.7
20260502021552 65 345 3.5 9.6 0.00 0.00 0.00 15 1010.5
20260502020050 66 360 6.1 9.6 0.00 0.00 0.00 15 1010.2
20260502014547 67 12 6.1 10.4 0.00 0.00 0.00 15 1010.2
20260502013046 68 5 7.8 12.2 0.00 0.00 0.00 13 1009.9
20260502011546 69 355 7.0 14.8 0.00 0.00 0.00 13 1009.8
20260502010052 69 14 9.6 15.6 0.00 0.00 0.00 13 1009.6
20260502004558 70 11 10.4 15.6 0.00 0.00 0.00 13 1009.4
20260502003044 70 346 11.3 17.4 0.00 0.00 0.00 13 1009.4
20260502001543 70 342 8.7 18.2 0.00 0.00 0.00 12 1009.6
20260502000043 70 344 12.2 16.5 0.00 0.00 0.00 12 1009.4
20260501234542 70 12 7.8 16.5 0.00 0.00 0.00 12 1009.4
20260501233044 70 346 7.0 12.2 0.00 0.00 0.00 13 1009.5
20260501231539 70 331 9.6 16.5 0.00 0.00 0.00 12 1009.5
20260501230038 70 331 8.7 15.6 0.00 0.00 0.00 12 1009.6
20260501224541 70 18 10.4 14.8 0.00 0.00 0.00 11 1009.6
20260501223035 70 340 7.8 20.0 0.00 0.00 0.00 13 1009.9
20260501221533 70 319 3.5 14.8 0.00 0.00 0.00 13 1010.0